This is the latest recevied weather packets stored in our database for station/object IU8UOQ-5. If no packets are shown the sender has not sent any weather packets the latest 10 day(s).
| Time | Temp. | Humidity | Pressure | Rain* | Wind** | Luminosity | Snow |
|---|---|---|---|---|---|---|---|
| 1777322264 | 21.11° C | 47% | 1009.2 hPa | - | - | - | - |
| 1777321063 | 21.11° C | 47% | 1009.2 hPa | - | - | - | - |
| 1777319861 | 21.11° C | 48% | 1009.3 hPa | - | - | - | - |
| 1777318660 | 21.67° C | 48% | 1009.4 hPa | - | - | - | - |
| 1777317459 | 21.67° C | 48% | 1009.3 hPa | - | - | - | - |
| 1777316257 | 21.67° C | 48% | 1009.1 hPa | - | - | - | - |
| 1777315056 | 21.67° C | 48% | 1009 hPa | - | - | - | - |
| 1777313855 | 22.22° C | 48% | 1008.9 hPa | - | - | - | - |
| 1777312654 | 21.67° C | 48% | 1008.7 hPa | - | - | - | - |
| 1777311453 | 21.67° C | 44% | 1008.6 hPa | - | - | - | - |
| 1777310251 | 21.67° C | 43% | 1008.7 hPa | - | - | - | - |
| 1777309050 | 21.67° C | 43% | 1008.6 hPa | - | - | - | - |
| 1777307849 | 21.67° C | 42% | 1008.5 hPa | - | - | - | - |
| 1777306647 | 22.22° C | 42% | 1008.8 hPa | - | - | - | - |
| 1777305446 | 23.33° C | 41% | 1008.8 hPa | - | - | - | - |
| 1777304245 | 23.33° C | 42% | 1008.6 hPa | - | - | - | - |
| 1777303044 | 21.67° C | 43% | 1008.6 hPa | - | - | - | - |
| 1777301842 | 21.67° C | 43% | 1008.5 hPa | - | - | - | - |
| 1777300641 | 21.67° C | 42% | 1008.8 hPa | - | - | - | - |
| 1777299440 | 22.78° C | 41% | 1008.7 hPa | - | - | - | - |
| 1777298238 | 22.78° C | 44% | 1009 hPa | - | - | - | - |
| 1777297037 | 22.22° C | 44% | 1009.2 hPa | - | - | - | - |
| 1777295836 | 19.44° C | 47% | 1009.4 hPa | - | - | - | - |
| 1777294635 | 19.44° C | 47% | 1009.6 hPa | - | - | - | - |
| 1777293433 | 19.44° C | 48% | 1009.5 hPa | - | - | - | - |
* Rain since midnight (hover to see other rain measurements)
** Current wind speed in m/s (hover to see current wind gust speed)